Milwaukee Timmerman, WI

2:27 AM CST on January 20, 2018 (GMT -0600)
Timmerman

Weather History for KMWC - October, 2013

Change the Weather History Date:

Friday, October 25, 2013

  Actual Average Record
Temperature  
Mean Temperature 39 °F -  
Max Temperature 50 °F 57 °F 76 °F (1989)
Min Temperature 28 °F 40 °F 22 °F (1957)
Degree Days  
Heating Degree Days 26    
Moisture  
Dew Point 23 °F    
Average Humidity 59    
Maximum Humidity 86    
Minimum Humidity 37    
Precipitation  
Precipitation 0.00 in - - ()
Sea Level Pressure  
Sea Level Pressure 30.20 in    
Wind  
Wind Speed 9 mph (WSW)    
Max Wind Speed 26 mph    
Max Gust Speed 36 mph    
Visibility 10 miles    
Events      
Averages and records for this station are not official NWS values.
T = Trace of Precipitation, MM = Missing Value Source: NWS Daily Summary

Daily Weather History Graph

Daily Weather History Graph

Search for Another Location

Airport or City:

Trip Planner

Search our weather history database for the weather conditions in past years. The results will help you decide how hot, cold, wet, or windy it might be!

Date:

Astronomy

Oct. 25, 2013 Rise Set
Actual Time 7:18 AM CDT 5:53 PM CDT
Civil Twilight 6:49 AM CDT 6:22 PM CDT
Nautical Twilight 6:15 AM CDT 6:55 PM CDT
Astronomical Twilight 5:42 AM CDT 7:28 PM CDT
Moon 11:10 PM CDT (10/25) 1:01 PM CDT (10/25)
Length of Visible Light 11h 33m
Length of Day
10h 35m
Waning Gibbous, 62% of the Moon is Illuminated
Oct 25
Waning Gibbous
Oct 26
Last Quarter
Nov 3
New
Nov 9
First Quarter
Nov 17
Full

Hourly Weather History & Observations

Time (CDT) Temp. Windchill Dew Point Humidity Pressure Visibility Wind Dir Wind Speed Gust Speed Precip Events Conditions
12:15 AM 32.0 °F 26.4 °F 23.0 °F 69% 30.27 in 10.0 mi West 5.8 mph - N/A   Clear
12:35 AM 32.0 °F 24.8 °F 24.8 °F 75% 30.28 in 10.0 mi West 8.1 mph - N/A   Clear
12:55 AM 32.0 °F 24.8 °F 24.8 °F 75% 30.28 in 10.0 mi WNW 8.1 mph - N/A   Clear
1:15 AM 32.0 °F 25.6 °F 23.0 °F 69% 30.28 in 10.0 mi West 6.9 mph - N/A   Clear
1:35 AM 32.0 °F 26.4 °F 23.0 °F 69% 30.29 in 10.0 mi West 5.8 mph - N/A   Clear
1:55 AM 32.0 °F 25.6 °F 23.0 °F 69% 30.29 in 10.0 mi West 6.9 mph - N/A   Clear
2:15 AM 32.0 °F 25.6 °F 23.0 °F 69% 30.30 in 10.0 mi West 6.9 mph - N/A   Clear
2:35 AM 32.0 °F 26.4 °F 23.0 °F 69% 30.30 in 10.0 mi West 5.8 mph - N/A   Clear
2:55 AM 30.2 °F 25.4 °F 23.0 °F 75% 30.30 in 10.0 mi West 4.6 mph - N/A   Clear
3:15 AM 32.0 °F 27.5 °F 23.0 °F 69% 30.30 in 10.0 mi West 4.6 mph - N/A   Clear
3:35 AM 30.2 °F 24.3 °F 23.0 °F 75% 30.31 in 10.0 mi West 5.8 mph - N/A   Clear
3:55 AM 30.2 °F 24.3 °F 24.8 °F 80% 30.31 in 10.0 mi West 5.8 mph - N/A   Clear
4:15 AM 30.2 °F 22.6 °F 24.8 °F 80% 30.31 in 10.0 mi West 8.1 mph - N/A   Clear
4:35 AM 30.2 °F 24.3 °F 24.8 °F 80% 30.31 in 10.0 mi West 5.8 mph - N/A   Clear
4:55 AM 30.2 °F 25.4 °F 23.0 °F 75% 30.32 in 10.0 mi West 4.6 mph - N/A   Clear
5:15 AM 30.2 °F 25.4 °F 23.0 °F 75% 30.33 in 10.0 mi West 4.6 mph - N/A   Clear
5:35 AM 30.2 °F 25.4 °F 23.0 °F 75% 30.33 in 10.0 mi West 4.6 mph - N/A   Clear
5:55 AM 30.2 °F 25.4 °F 23.0 °F 75% 30.33 in 10.0 mi West 4.6 mph - N/A   Clear
6:15 AM 28.4 °F 24.6 °F 23.0 °F 80% 30.33 in 10.0 mi West 3.5 mph - N/A   Clear
6:35 AM 28.4 °F 22.2 °F 23.0 °F 80% 30.33 in 10.0 mi West 5.8 mph - N/A   Clear
6:45 AM 28.4 °F 23.3 °F 23.0 °F 80% 30.33 in 10.0 mi West 4.6 mph - N/A   Clear
6:55 AM 28.4 °F 24.6 °F 23.0 °F 80% 30.33 in 10.0 mi West 3.5 mph - N/A   Clear
7:45 AM 28.4 °F 23.3 °F 24.8 °F 86% 30.35 in 10.0 mi WSW 4.6 mph - N/A   Clear
8:45 AM 33.8 °F 27.0 °F 24.8 °F 70% 30.36 in 10.0 mi West 8.1 mph - N/A   Clear
9:45 AM 37.4 °F 32.8 °F 26.6 °F 65% 30.35 in 10.0 mi West 5.8 mph - N/A   Clear
10:45 AM 42.8 °F 38.6 °F 21.2 °F 42% 30.33 in 10.0 mi West 6.9 mph - N/A   Clear
11:45 AM 42.8 °F 37.0 °F 21.2 °F 42% 30.32 in 10.0 mi WSW 10.4 mph 18.4 mph N/A   Mostly Cloudy
12:45 PM 46.4 °F 39.5 °F 21.2 °F 37% 30.27 in 10.0 mi SSW 17.3 mph 23.0 mph N/A   Scattered Clouds
1:45 PM 46.4 °F 39.2 °F 23.0 °F 40% 30.23 in 10.0 mi SW 18.4 mph 25.3 mph N/A   Scattered Clouds
2:45 PM 48.2 °F - 24.8 °F 40% 30.19 in 10.0 mi WSW 13.8 mph 21.9 mph N/A   Scattered Clouds
3:45 PM 50.0 °F - 24.8 °F 37% 30.16 in 10.0 mi SW 19.6 mph 26.5 mph N/A   Scattered Clouds
4:45 PM 48.2 °F - 23.0 °F 37% 30.12 in 10.0 mi WSW 13.8 mph 23.0 mph N/A   Clear
5:45 PM 48.2 °F - 24.8 °F 40% 30.08 in 10.0 mi SSW 11.5 mph 19.6 mph N/A   Scattered Clouds
6:45 PM 46.4 °F 41.1 °F 24.8 °F 43% 30.04 in 10.0 mi SSW 11.5 mph - N/A   Scattered Clouds
7:45 PM 46.4 °F 39.2 °F 24.8 °F 43% 30.02 in 10.0 mi SSW 18.4 mph 24.2 mph N/A   Clear
8:45 PM 46.4 °F 40.1 °F 23.0 °F 40% 29.99 in 10.0 mi SW 15.0 mph 26.5 mph N/A   Clear
9:15 PM 46.4 °F 39.5 °F 23.0 °F 40% 29.98 in 10.0 mi SW 17.3 mph 26.5 mph N/A   Clear
9:35 PM 46.4 °F 39.5 °F 23.0 °F 40% 29.96 in 10.0 mi SW 17.3 mph 33.4 mph N/A   Clear
9:55 PM 46.4 °F 39.0 °F 23.0 °F 40% 29.95 in 10.0 mi SW 19.6 mph 31.1 mph N/A   Scattered Clouds
10:15 PM 46.4 °F 38.5 °F 23.0 °F 40% 29.95 in 10.0 mi SW 21.9 mph 29.9 mph N/A   Scattered Clouds
10:35 PM 46.4 °F 39.0 °F 21.2 °F 37% 29.94 in 10.0 mi SW 19.6 mph 33.4 mph N/A   Scattered Clouds
10:55 PM 46.4 °F 38.7 °F 21.2 °F 37% 29.93 in 10.0 mi SW 20.7 mph 31.1 mph N/A   Clear
11:15 PM 46.4 °F 37.7 °F 21.2 °F 37% 29.92 in 10.0 mi SW 26.5 mph 34.5 mph N/A   Clear
11:35 PM 46.4 °F 38.1 °F 21.2 °F 37% 29.91 in 10.0 mi SW 24.2 mph 34.5 mph N/A   Clear
11:55 PM 46.4 °F 38.3 °F 21.2 °F 37% 29.90 in 10.0 mi SW 23.0 mph 35.7 mph N/A   Scattered Clouds